| time (UTC) | temp C | wind direction | speed KPH | gust KPH | rain 1hr cm | rain 24hr cm | rain mn cm | humidity % | barometer mb |
| 20260505081557 | 15 | 309 | 3.2 | 9.7 | 0.00 | 0.00 | 0.00 | 71 | 1004.0 |
| 20260505080056 | 15 | 285 | 1.6 | 8.0 | 0.00 | 0.00 | 0.00 | 72 | 1003.8 |
| 20260505074554 | 15 | 336 | 0.0 | 6.4 | 0.00 | 0.00 | 0.00 | 72 | 1004.1 |
| 20260505073056 | 15 | 314 | 1.6 | 8.0 | 0.00 | 0.00 | 0.00 | 71 | 1004.0 |
| 20260505071553 | 15 | 280 | 0.0 | 12.9 | 0.00 | 0.00 | 0.00 | 70 | 1004.2 |
| 20260505070050 | 15 | 278 | 3.2 | 11.3 | 0.00 | 0.00 | 0.00 | 69 | 1004.0 |
| 20260505064548 | 15 | 304 | 0.0 | 11.3 | 0.00 | 0.00 | 0.00 | 69 | 1004.1 |
| 20260505063048 | 15 | 302 | 1.6 | 8.0 | 0.00 | 0.00 | 0.00 | 68 | 1003.9 |
| 20260505061548 | 15 | 294 | 1.6 | 8.0 | 0.00 | 0.00 | 0.00 | 67 | 1004.0 |
| 20260505060046 | 15 | 284 | 3.2 | 12.9 | 0.00 | 0.00 | 0.00 | 67 | 1004.2 |
| 20260505054546 | 15 | 287 | 3.2 | 11.3 | 0.00 | 0.00 | 0.00 | 66 | 1004.1 |
| 20260505053048 | 16 | 293 | 4.8 | 16.1 | 0.00 | 0.00 | 0.00 | 66 | 1004.1 |
| 20260505051541 | 16 | 273 | 4.8 | 9.7 | 0.00 | 0.00 | 0.00 | 66 | 1004.2 |
| 20260505041538 | 16 | 261 | 1.6 | 12.9 | 0.00 | 0.00 | 0.00 | 62 | 1004.3 |
| 20260505040033 | 16 | 303 | 3.2 | 12.9 | 0.00 | 0.00 | 0.00 | 61 | 1004.0 |
| 20260505034532 | 16 | 277 | 3.2 | 11.3 | 0.00 | 0.00 | 0.00 | 58 | 1004.1 |
| 20260505033045 | 16 | 261 | 1.6 | 3.2 | 0.00 | 0.00 | 0.00 | 55 | 1004.4 |
| 20260505031530 | 16 | 267 | 1.6 | 11.3 | 0.00 | 0.00 | 0.00 | 54 | 1004.1 |
| 20260505030029 | 17 | 248 | 3.2 | 12.9 | 0.00 | 0.00 | 0.00 | 52 | 1004.0 |
| 20260505024528 | 17 | 275 | 4.8 | 12.9 | 0.00 | 0.00 | 0.00 | 51 | 1004.5 |
| 20260505023026 | 17 | 252 | 4.8 | 11.3 | 0.00 | 0.00 | 0.00 | 51 | 1004.7 |
| 20260505021528 | 17 | 286 | 6.4 | 12.9 | 0.00 | 0.00 | 0.00 | 50 | 1004.5 |
| 20260505020023 | 17 | 285 | 3.2 | 8.0 | 0.00 | 0.00 | 0.00 | 51 | 1004.6 |
| 20260505014522 | 18 | 279 | 3.2 | 11.3 | 0.00 | 0.00 | 0.00 | 52 | 1004.5 |
| 20260505013121 | 18 | 266 | 3.2 | 4.8 | 0.00 | 0.00 | 0.00 | 51 | 1004.6 |
| 20260505011522 | 18 | 275 | 3.2 | 12.9 | 0.00 | 0.00 | 0.00 | 49 | 1004.4 |
| 20260505010011 | 18 | 252 | 4.8 | 11.3 | 0.00 | 0.00 | 0.00 | 48 | 1004.2 |
| 20260505004523 | 19 | 242 | 3.2 | 12.9 | 0.00 | 0.00 | 0.00 | 46 | 1004.1 |
| 20260505003010 | 20 | 243 | 1.6 | 9.7 | 0.00 | 0.00 | 0.00 | 44 | 1003.7 |
| 20260505001510 | 20 | 242 | 4.8 | 11.3 | 0.00 | 0.00 | 0.00 | 42 | 1003.6 |
| 20260505000038 | 20 | 281 | 3.2 | 17.7 | 0.00 | 0.00 | 0.00 | 41 | 1003.5 |
| 20260504234602 | 21 | 267 | 4.8 | 14.5 | 0.00 | 0.00 | 0.00 | 40 | 1003.4 |
| 20260504233036 | 21 | 318 | 8.0 | 17.7 | 0.00 | 0.00 | 0.00 | 38 | 1003.2 |
| 20260504231548 | 21 | 321 | 6.4 | 20.9 | 0.00 | 0.00 | 0.00 | 38 | 1003.4 |
| 20260504230036 | 21 | 299 | 11.3 | 20.9 | 0.00 | 0.00 | 0.00 | 37 | 1003.4 |
| 20260504224533 | 21 | 265 | 6.4 | 19.3 | 0.00 | 0.00 | 0.00 | 36 | 1003.5 |
| 20260504223032 | 22 | 303 | 6.4 | 20.9 | 0.00 | 0.00 | 0.00 | 36 | 1003.5 |
| 20260504221532 | 22 | 331 | 8.0 | 24.1 | 0.00 | 0.00 | 0.00 | 36 | 1003.4 |
| 20260504220035 | 22 | 320 | 11.3 | 22.5 | 0.00 | 0.00 | 0.00 | 36 | 1003.4 |
| 20260504214536 | 22 | 345 | 6.4 | 16.1 | 0.00 | 0.00 | 0.00 | 35 | 1003.6 |
| 20260504213029 | 22 | 27 | 3.2 | 16.1 | 0.00 | 0.00 | 0.00 | 34 | 1003.7 |
| 20260504211523 | 21 | 284 | 8.0 | 27.4 | 0.00 | 0.00 | 0.00 | 35 | 1003.6 |
| 20260504210022 | 21 | 274 | 11.3 | 24.1 | 0.00 | 0.00 | 0.00 | 35 | 1003.5 |
| 20260504204549 | 22 | 338 | 4.8 | 30.6 | 0.00 | 0.00 | 0.00 | 36 | 1003.7 |
| 20260504203019 | 22 | 265 | 9.7 | 22.5 | 0.00 | 0.00 | 0.00 | 34 | 1003.6 |
| 20260504201516 | 21 | 331 | 8.0 | 24.1 | 0.00 | 0.00 | 0.00 | 35 | 1003.7 |
| 20260504200016 | 21 | 283 | 9.7 | 30.6 | 0.00 | 0.00 | 0.00 | 35 | 1003.8 |
| 20260504194518 | 21 | 289 | 11.3 | 27.4 | 0.00 | 0.00 | 0.00 | 35 | 1003.9 |
| 20260504193017 | 21 | 303 | 12.9 | 29.0 | 0.00 | 0.00 | 0.00 | 35 | 1004.1 |
| 20260504191508 | 21 | 282 | 17.7 | 25.7 | 0.00 | 0.00 | 0.00 | 34 | 1004.4 |
| 20260504190008 | 21 | 288 | 11.3 | 24.1 | 0.00 | 0.00 | 0.00 | 34 | 1004.5 |
| 20260504184503 | 21 | 319 | 11.3 | 22.5 | 0.00 | 0.00 | 0.00 | 33 | 1004.9 |
| 20260504183101 | 21 | 271 | 9.7 | 19.3 | 0.00 | 0.00 | 0.00 | 34 | 1005.1 |
| 20260504181557 | 21 | 329 | 14.5 | 25.7 | 0.00 | 0.00 | 0.00 | 34 | 1005.3 |
| 20260504180055 | 21 | 286 | 9.7 | 22.5 | 0.00 | 0.00 | 0.00 | 33 | 1005.5 |
| 20260504174555 | 21 | 331 | 9.7 | 24.1 | 0.00 | 0.00 | 0.00 | 35 | 1005.6 |
| 20260504173050 | 20 | 327 | 6.4 | 27.4 | 0.00 | 0.00 | 0.00 | 33 | 1005.8 |
| 20260504171548 | 20 | 307 | 3.2 | 14.5 | 0.00 | 0.00 | 0.00 | 35 | 1005.8 |
| 20260504120124 | 11 | 301 | 6.4 | 17.7 | 0.00 | 0.00 | 0.00 | 74 | 1008.3 |